Deadman Valley, Northwest Territories

8:04 AM MDT on April 21, 2018 (GMT -0600)
Deadman Valley

Weather History for CXDK - December, 2012

Change the Weather History Date:

Saturday, December 15, 2012

  Actual Average Record
Temperature  
Mean Temperature -14 °F -  
Max Temperature 0 °F - - ()
Min Temperature -27 °F - - ()
Degree Days  
Heating Degree Days 78    
Moisture  
Dew Point -10 °F    
Average Humidity 80    
Maximum Humidity 83    
Minimum Humidity 72    
Precipitation  
Precipitation 0.00 in - - ()
Sea Level Pressure  
Sea Level Pressure 29.44 in    
Wind  
Wind Speed 15 mph ()    
Max Wind Speed 41 mph    
Max Gust Speed -    
T = Trace of Precipitation, MM = Missing Value Source: Averaged Metar Reports

Daily Weather History Graph

Daily Weather History Graph

Search for Another Location

Airport or City:

Astronomy

Dec. 15, 2012 Rise Set
Actual Time 10:28 AM MST 3:57 PM MST
Civil Twilight 9:26 AM MST 5:00 PM MST
Nautical Twilight 8:26 AM MST 5:59 PM MST
Astronomical Twilight 7:32 AM MST 6:53 PM MST
Moon 11:44 AM MST (12/15) 7:56 PM MST (12/15)
Length of Visible Light 7h 33m
Length of Day
5h 29m
Waxing Crescent, 9% of the Moon is Illuminated
Dec 15
Waxing Crescent
Dec 19
First Quarter
Dec 28
Full
Jan 4
Last Quarter
Jan 11
New

Hourly Weather History & Observations

Time (MST) Temp. Windchill Dew Point Humidity Pressure Visibility Wind Dir Wind Speed Gust Speed Precip Events Conditions
12:00 AM -16.4 °F -40.4 °F -22.0 °F 76% 29.61 in - North 15.0 mph - N/A   Unknown
1:00 AM -20.4 °F -57.6 °F -26.3 °F 74% 29.60 in - North 41.4 mph - N/A   Unknown
2:00 AM -14.8 °F -34.6 °F -20.0 °F 77% 29.58 in - North 10.4 mph - N/A   Unknown
3:00 AM -11.7 °F -28.5 °F -16.2 °F 80% 29.56 in - North 8.1 mph - N/A   Unknown
4:00 AM -9.0 °F -25.2 °F -13.5 °F 81% 29.54 in - North 8.1 mph - N/A   Unknown
5:00 AM -8 °F - -12 °F 72% 29.51 in - Calm Calm - -  
5:00 AM -8.0 °F -40.2 °F -12.3 °F 81% 29.51 in - North 41.4 mph - N/A   Unknown
6:00 AM -7.1 °F -37.7 °F -11.4 °F 81% 29.50 in - North 36.8 mph - N/A   Unknown
7:00 AM -6.5 °F -23.3 °F -10.8 °F 82% 29.48 in - North 9.2 mph - N/A   Unknown
8:00 AM -5.8 °F - -10.1 °F 82% 29.47 in - Calm Calm - N/A   Unknown
9:00 AM -5.4 °F -24.8 °F -9.6 °F 82% 29.45 in - North 12.7 mph - N/A   Unknown
10:00 AM -4.9 °F -35.3 °F -9.0 °F 82% 29.45 in - North 39.1 mph - N/A   Unknown
11:00 AM -4 °F - -8 °F 72% 29.43 in - Calm Calm - -  
11:00 AM -4.2 °F -19.3 °F -8.3 °F 82% 29.43 in - North 8.1 mph - N/A   Unknown
12:00 PM -3.6 °F -14.1 °F -7.6 °F 83% 29.42 in - North 4.6 mph - N/A   Unknown
1:00 PM -2.9 °F -16.5 °F -6.9 °F 83% 29.40 in - North 6.9 mph - N/A   Unknown
2:00 PM -1.8 °F -17.5 °F -6.2 °F 82% 29.39 in - North 9.2 mph - N/A   Unknown
3:00 PM -1.7 °F -28.1 °F -5.8 °F 83% 29.38 in - North 29.9 mph - N/A   Unknown
4:00 PM -1.3 °F -29.4 °F -5.4 °F 83% 29.37 in - North 35.7 mph - N/A   Unknown
5:00 PM -1 °F - -5 °F 73% 29.37 in - Calm Calm - -  
5:00 PM -1.1 °F - -5.3 °F 83% 29.37 in - North 1.2 mph - N/A   Unknown
6:00 PM -0.6 °F -13.6 °F -4.7 °F 83% 29.36 in - North 6.9 mph - N/A   Unknown
7:00 PM -0.6 °F -13.6 °F -4.5 °F 83% 29.35 in - North 6.9 mph - N/A   Unknown
8:00 PM -0.4 °F -13.4 °F -4.4 °F 83% 29.35 in - North 6.9 mph - N/A   Unknown
9:00 PM -0.0 °F -13.0 °F -4.2 °F 83% 29.35 in - North 6.9 mph - N/A   Unknown
10:00 PM 0.1 °F -18.5 °F -4.0 °F 83% 29.37 in - North 13.8 mph - N/A   Unknown
11:00 PM -0.2 °F -19.6 °F -4.2 °F 83% 29.37 in - North 15.0 mph - N/A   Unknown